Domov               UVHVVR             MKGP            O straneh              
ZDRAVSTVENO VARSTVO RASTLIN
  MREŽA AGROMET. POSTAJ
 ► PROGNOSTIČNA OBVESTILA
AGROMETEOROLOŠKI PODATKI -
ARSO
OBVLADOVANJE TVEGANJ ZARADI
NEUGODNIH VREMENSKIH RAZMER
  ► NARAVNE NESREČE
  ► SUŠA/MOČA
  ► NAMAKANJE
  ► ŽLED (gozdarstvo)
KARTOGRAFSKI PRIKAZI
SPLETNE POVEZAVE
PROJEKTI IN PUBLIKACIJE

AGROMETEOROLOŠKA MREŽA: VREMENSKE POSTAJE IN FENOLOŠKA OPAZOVANJA

Pregled podatkov za lokacijo Sebeborci, meteorološka postaja 25165

Pregled senzorjev na lokaciji

ID Ime Zadnja
vrednost
Datum
zadnje
spremembe
Tip
senzorja
2012 Padavine (mm) 0 mm 12.12.2017 01:00 Generic 0.2 mm
2013 Omočenost lista (U) 0 U 12.12.2017 01:00 A730WET
2014 Relativna vlaga 2 m (% RH) 65,37 % RH 12.12.2017 01:00 Generic 0 - 100 %
2015 Temperatura 2 m (°C) 11,14 °C 12.12.2017 01:00 Generic -40 - +60 °C

Pregled podatkov zadnjih 24 ur

Zap.
št.
Datum in čas Sebeborci
Omočenost
lista
Padavine Relativna
vlaga
2
m
Temperatura
2
m
0 12.12.2017 01:00 0 0 65,37 11,14
1 12.12.2017 00:30 0 0 63,79 11,6
2 12.12.2017 00:00 0 0 63,61 11,53
3 11.12.2017 23:30 0 0 63,88 11,53
4 11.12.2017 23:00 0 0 61,54 11,53
5 11.12.2017 22:30 0 0 66,45 10,99
6 11.12.2017 22:00 0 0 65,71 11,31
7 11.12.2017 21:30 0 0 66,72 11,09
8 11.12.2017 21:00 0 0 66,54 10,96
9 11.12.2017 20:30 0 0 68,72 11,01
10 11.12.2017 20:00 0 0 66,96 11,38
11 11.12.2017 19:30 0 0 66,28 11,33
12 11.12.2017 19:00 0 0 67,01 11,31
13 11.12.2017 18:30 0 0 67,13 11,5
14 11.12.2017 18:00 0 0 66,69 11,53
15 11.12.2017 17:30 0 0 66,69 11,4
16 11.12.2017 17:00 0 0 67,52 10,74
17 11.12.2017 16:30 0 0 72,7 10,26
18 11.12.2017 16:00 3 0 72,31 10,18
19 11.12.2017 15:30 6 0,2 76,61 9,26
20 11.12.2017 15:00 10 1,2 84,25 9,08
21 11.12.2017 14:30 9 0 72,14 9,47
22 11.12.2017 14:00 8 0 73,33 9,11
23 11.12.2017 13:30 10 0,2 74,33 8,77
24 11.12.2017 13:00 3 0 73,14 8,4
25 11.12.2017 12:30 9 0,2 76,48 7,91
26 11.12.2017 12:00 10 0 76 8,11
27 11.12.2017 11:30 0 0 71,38 7,69
28 11.12.2017 11:00 0 0 72,43 7,11
29 11.12.2017 10:30 0 0 74,07 6,84
30 11.12.2017 10:00 0 0 74,14 6,42
31 11.12.2017 09:30 0 0 75,53 5,74
32 11.12.2017 09:00 0 0 77,02 5,13
33 11.12.2017 08:30 0 0 78,24 4,3
34 11.12.2017 08:00 0 0 80,1 3,79
35 11.12.2017 07:30 0 0 80 3,59
36 11.12.2017 07:00 0 0 81,07 3,2
37 11.12.2017 06:30 0 0 80,68 2,71
38 11.12.2017 06:00 0 0 80,9 2,44
39 11.12.2017 05:30 0 0 79,41 2,2
40 11.12.2017 05:00 0 0 79,71 2,27
41 11.12.2017 04:30 0 0 79,98 2,03
42 11.12.2017 04:00 0 0 80,68 1,81
43 11.12.2017 03:30 0 0 80,98 1,68
44 11.12.2017 03:00 0 0 81,56 1,78
45 11.12.2017 02:30 0 0 81,34 1,95
46 11.12.2017 02:00 0 0 81,25 2,22
© 2011 Ministrstvo za kmetijstvo, gozdarstvo in prehrano. Vse pravice pridržane.